Location: Unspecified
(53.1100°N, 0.0000°E)
Time: 06:39:49
(UTC+00:00)

SL-19 R/B - Visible Passes

Search period start: 04 April 2026 00:00
Search period end: 14 April 2026 00:00
Orbit: 1194 x 1501 km, 82.5° (Epoch: 29 March)

Date Brightness Start Highest point End Pass type
(mag) Time Alt. Az. Time Alt. Az. Time Alt. Az.
4 Apr 7.7 00:22:42 10° E 00:26:15 14° ENE 00:29:53 10° NE visible
4 Apr 6.0 02:13:18 25° SSE 02:17:54 59° E 02:25:46 10° NNE visible
4 Apr 6.2 04:06:00 15° SW 04:11:53 40° WNW 04:19:27 10° N visible
5 Apr 7.4 00:45:41 12° ESE 00:50:36 22° ENE 00:56:16 10° NNE visible
5 Apr 5.6 02:38:23 28° S 02:42:53 84° E 02:51:03 10° NNE visible
5 Apr 6.6 04:31:05 10° WSW 04:37:34 29° NW 04:44:28 10° N visible
6 Apr 6.9 01:10:45 19° SE 01:15:08 32° E 01:22:01 10° NNE visible
6 Apr 5.6 03:03:26 27° SSW 03:08:03 70° WNW 03:16:15 10° N visible
6 Apr 7.9 23:47:05 10° ENE 23:48:34 11° ENE 23:50:04 10° NE visible
7 Apr 6.3 01:35:47 26° SE 01:39:50 47° E 01:47:31 10° NNE visible
7 Apr 6.0 03:28:28 22° SW 03:33:26 49° WNW 03:41:23 10° N visible
8 Apr 7.6 00:08:12 10° ESE 00:12:49 17° ENE 00:17:36 10° NNE visible
8 Apr 5.8 02:00:47 32° SSE 02:04:43 69° E 02:12:53 10° NNE visible
8 Apr 6.4 03:53:30 16° WSW 03:59:01 35° WNW 04:06:27 10° N visible
9 Apr 7.1 00:33:06 17° ESE 00:37:15 26° ENE 00:43:37 10° NNE visible
9 Apr 5.6 02:25:48 33° SSW 02:29:47 85° WNW 02:38:08 10° N visible
9 Apr 6.8 04:18:30 10° WSW 04:24:47 25° NW 04:31:27 10° N visible
10 Apr 6.6 00:58:06 25° SE 01:01:51 38° E 01:09:14 10° NNE visible
10 Apr 5.8 02:50:47 29° SW 02:55:03 61° WNW 03:03:18 10° N visible
10 Apr 7.7 23:31:39 10° E 23:35:06 13° ENE 23:38:38 10° NE visible
11 Apr 6.1 01:23:04 33° SSE 01:26:38 56° E 01:34:40 10° NNE visible
11 Apr 6.2 03:15:45 22° WSW 03:20:31 43° WNW 03:28:25 10° N visible
11 Apr 7.3 23:55:21 14° ESE 23:59:26 21° ENE 00:05:06 10° NNE visible
12 Apr 5.7 01:48:02 37° S 01:51:35 80° E 01:59:59 10° NNE visible
12 Apr 6.6 03:40:43 15° WSW 03:46:11 31° WNW 03:53:28 10° N visible
13 Apr 6.9 00:20:18 22° ESE 00:23:56 31° E 00:30:55 10° NNE visible
13 Apr 5.7 02:12:59 35° SSW 02:16:45 74° WNW 02:25:12 10° N visible
13 Apr 7.0 04:06:01 10° W 04:12:04 23° NW 04:18:26 10° N visible
13 Apr 7.9 22:56:26 10° ENE 22:57:28 10° ENE 22:58:30 10° NE visible
